Year,Month,Day,Hour,Minute,Value (Times are PST for temperature in C)
2016,04,02,00,00,9.20
2016,04,02,00,01,9.20
2016,04,02,00,02,9.10
2016,04,02,00,03,9.10
2016,04,02,00,04,9.10
2016,04,02,00,05,9.10
2016,04,02,00,06,9.00
2016,04,02,00,07,9.00
2016,04,02,00,08,9.00
2016,04,02,00,09,9.00
2016,04,02,00,10,8.90
2016,04,02,00,11,8.90
2016,04,02,00,12,8.90
2016,04,02,00,13,8.90
2016,04,02,00,14,8.80
2016,04,02,00,15,8.80
2016,04,02,00,16,8.80
2016,04,02,00,17,8.80
2016,04,02,00,18,8.80
2016,04,02,00,19,8.70
2016,04,02,00,20,8.70
2016,04,02,00,21,8.70
2016,04,02,00,22,8.70
2016,04,02,00,23,8.60
2016,04,02,00,24,8.60
2016,04,02,00,25,8.60
2016,04,02,00,26,8.60
2016,04,02,00,27,8.60
2016,04,02,00,28,8.50
2016,04,02,00,29,8.50
2016,04,02,00,30,8.50
2016,04,02,00,31,8.50
2016,04,02,00,32,8.50
2016,04,02,00,33,8.50
2016,04,02,00,34,8.40
2016,04,02,00,35,8.40
2016,04,02,00,36,8.40
2016,04,02,00,37,8.40
2016,04,02,00,38,8.40
2016,04,02,00,39,8.40
2016,04,02,00,40,8.30
2016,04,02,00,41,8.30
2016,04,02,00,42,8.30
2016,04,02,00,43,8.30
2016,04,02,00,44,8.30
2016,04,02,00,45,8.30
2016,04,02,00,46,8.20
2016,04,02,00,47,8.20
2016,04,02,00,48,8.20
2016,04,02,00,49,8.20
2016,04,02,00,50,8.20
2016,04,02,00,51,8.20
2016,04,02,00,52,8.20
2016,04,02,00,53,8.20
2016,04,02,00,54,8.20
2016,04,02,00,55,8.10
2016,04,02,00,56,8.10
2016,04,02,00,57,8.10
2016,04,02,00,58,8.10
2016,04,02,00,59,8.10
2016,04,02,01,00,8.10
2016,04,02,01,01,8.10
2016,04,02,01,02,8.10
2016,04,02,01,03,8.00
2016,04,02,01,04,8.00
2016,04,02,01,05,8.00
2016,04,02,01,06,8.00
2016,04,02,01,07,7.90
2016,04,02,01,08,7.90
2016,04,02,01,09,7.90
2016,04,02,01,10,7.90
2016,04,02,01,11,7.90
2016,04,02,01,12,7.80
2016,04,02,01,13,7.80
2016,04,02,01,14,7.80
2016,04,02,01,15,7.80
2016,04,02,01,16,7.80
2016,04,02,01,17,7.80
2016,04,02,01,18,7.70
2016,04,02,01,19,7.70
2016,04,02,01,20,7.70
2016,04,02,01,21,7.70
2016,04,02,01,22,7.70
2016,04,02,01,23,7.70
2016,04,02,01,24,7.70
2016,04,02,01,25,7.60
2016,04,02,01,26,7.60
2016,04,02,01,27,7.60
2016,04,02,01,28,7.60
2016,04,02,01,29,7.60
2016,04,02,01,30,7.60
2016,04,02,01,31,7.60
2016,04,02,01,32,7.60
2016,04,02,01,33,7.50
2016,04,02,01,34,7.50
2016,04,02,01,35,7.50
2016,04,02,01,36,7.50
2016,04,02,01,37,7.50
2016,04,02,01,38,7.40
2016,04,02,01,39,7.40
2016,04,02,01,40,7.40
2016,04,02,01,41,7.40
2016,04,02,01,42,7.40
2016,04,02,01,43,7.40
2016,04,02,01,44,7.40
2016,04,02,01,45,7.40
2016,04,02,01,46,7.30
2016,04,02,01,47,7.30
2016,04,02,01,48,7.30
2016,04,02,01,49,7.30
2016,04,02,01,50,7.30
2016,04,02,01,51,7.30
2016,04,02,01,52,7.30
2016,04,02,01,53,7.30
2016,04,02,01,54,7.30
2016,04,02,01,55,7.30
2016,04,02,01,56,7.30
2016,04,02,01,57,7.30
2016,04,02,01,58,7.30
2016,04,02,01,59,7.30
2016,04,02,02,00,7.30
2016,04,02,02,01,7.20
2016,04,02,02,02,7.20
2016,04,02,02,03,7.20
2016,04,02,02,04,7.20
2016,04,02,02,05,7.20
2016,04,02,02,06,7.20
2016,04,02,02,07,7.20
2016,04,02,02,08,7.20
2016,04,02,02,09,7.20
2016,04,02,02,10,7.20
2016,04,02,02,11,7.20
2016,04,02,02,12,7.20
2016,04,02,02,13,7.20
2016,04,02,02,14,7.20
2016,04,02,02,15,7.10
2016,04,02,02,16,7.10
2016,04,02,02,17,7.10
2016,04,02,02,18,7.10
2016,04,02,02,19,7.10
2016,04,02,02,20,7.10
2016,04,02,02,21,7.10
2016,04,02,02,22,7.10
2016,04,02,02,23,7.00
2016,04,02,02,24,7.00
2016,04,02,02,25,7.00
2016,04,02,02,26,7.00
2016,04,02,02,27,7.00
2016,04,02,02,28,6.90
2016,04,02,02,29,6.90
2016,04,02,02,30,6.90
2016,04,02,02,31,6.90
2016,04,02,02,32,6.90
2016,04,02,02,33,6.90
2016,04,02,02,34,6.90
2016,04,02,02,35,6.90
2016,04,02,02,36,6.90
2016,04,02,02,37,6.90
2016,04,02,02,38,6.90
2016,04,02,02,39,6.90
2016,04,02,02,40,6.80
2016,04,02,02,41,6.80
2016,04,02,02,42,6.80
2016,04,02,02,43,6.80
2016,04,02,02,44,6.80
2016,04,02,02,45,6.80
2016,04,02,02,46,6.80
2016,04,02,02,47,6.70
2016,04,02,02,48,6.70
2016,04,02,02,49,6.70
2016,04,02,02,50,6.70
2016,04,02,02,51,6.70
2016,04,02,02,52,6.70
2016,04,02,02,53,6.70
2016,04,02,02,54,6.70
2016,04,02,02,55,6.60
2016,04,02,02,56,6.60
2016,04,02,02,57,6.60
2016,04,02,02,58,6.60
2016,04,02,02,59,6.60
2016,04,02,03,00,6.60
2016,04,02,03,01,6.60
2016,04,02,03,02,6.60
2016,04,02,03,03,6.60
2016,04,02,03,04,6.60
2016,04,02,03,05,6.60
2016,04,02,03,06,6.60
2016,04,02,03,07,6.50
2016,04,02,03,08,6.50
2016,04,02,03,09,6.50
2016,04,02,03,10,6.50
2016,04,02,03,11,6.50
2016,04,02,03,12,6.40
2016,04,02,03,13,6.40
2016,04,02,03,14,6.40
2016,04,02,03,15,6.40
2016,04,02,03,16,6.40
2016,04,02,03,17,6.40
2016,04,02,03,18,6.40
2016,04,02,03,19,6.40
2016,04,02,03,20,6.30
2016,04,02,03,21,6.30
2016,04,02,03,22,6.30
2016,04,02,03,23,6.30
2016,04,02,03,24,6.30
2016,04,02,03,25,6.30
2016,04,02,03,26,6.30
2016,04,02,03,27,6.30
2016,04,02,03,28,6.30
2016,04,02,03,29,6.30
2016,04,02,03,30,6.30
2016,04,02,03,31,6.30
2016,04,02,03,32,6.30
2016,04,02,03,33,6.30
2016,04,02,03,34,6.30
2016,04,02,03,35,6.30
2016,04,02,03,36,6.30
2016,04,02,03,37,6.30
2016,04,02,03,38,6.30
2016,04,02,03,39,6.30
2016,04,02,03,40,6.30
2016,04,02,03,41,6.30
2016,04,02,03,42,6.30
2016,04,02,03,43,6.30
2016,04,02,03,44,6.30
2016,04,02,03,45,6.30
2016,04,02,03,46,6.30
2016,04,02,03,47,6.20
2016,04,02,03,48,6.20
2016,04,02,03,49,6.20
2016,04,02,03,50,6.20
2016,04,02,03,51,6.20
2016,04,02,03,52,6.20
2016,04,02,03,53,6.20
2016,04,02,03,54,6.20
2016,04,02,03,55,6.20
2016,04,02,03,56,6.20
2016,04,02,03,57,6.20
2016,04,02,03,58,6.20
2016,04,02,03,59,6.20
2016,04,02,04,00,6.20
2016,04,02,04,01,6.20
2016,04,02,04,02,6.20
2016,04,02,04,03,6.20
2016,04,02,04,04,6.20
2016,04,02,04,05,6.20
2016,04,02,04,06,6.20
2016,04,02,04,07,6.10
2016,04,02,04,08,6.10
2016,04,02,04,09,6.10
2016,04,02,04,10,6.10
2016,04,02,04,11,6.10
2016,04,02,04,12,6.00
2016,04,02,04,13,6.00
2016,04,02,04,14,6.00
2016,04,02,04,15,6.00
2016,04,02,04,16,5.90
2016,04,02,04,17,5.90
2016,04,02,04,18,5.90
2016,04,02,04,19,5.90
2016,04,02,04,20,5.90
2016,04,02,04,21,5.90
2016,04,02,04,22,5.90
2016,04,02,04,23,5.90
2016,04,02,04,24,5.80
2016,04,02,04,25,5.80
2016,04,02,04,26,5.80
2016,04,02,04,27,5.80
2016,04,02,04,28,5.80
2016,04,02,04,29,5.80
2016,04,02,04,30,5.80
2016,04,02,04,31,5.80
2016,04,02,04,32,5.80
2016,04,02,04,33,5.80
2016,04,02,04,34,5.80
2016,04,02,04,35,5.80
2016,04,02,04,36,5.80
2016,04,02,04,37,5.80
2016,04,02,04,38,5.80
2016,04,02,04,39,5.80
2016,04,02,04,40,5.80
2016,04,02,04,41,5.80
2016,04,02,04,42,5.80
2016,04,02,04,43,5.80
2016,04,02,04,44,5.80
2016,04,02,04,45,5.80
2016,04,02,04,46,5.70
2016,04,02,04,47,5.70
2016,04,02,04,48,5.70
2016,04,02,04,49,5.70
2016,04,02,04,50,5.70
2016,04,02,04,51,5.70
2016,04,02,04,52,5.70
2016,04,02,04,53,5.70
2016,04,02,04,54,5.60
2016,04,02,04,55,5.60
2016,04,02,04,56,5.60
2016,04,02,04,57,5.60
2016,04,02,04,58,5.60
2016,04,02,04,59,5.60
2016,04,02,05,00,5.60
2016,04,02,05,01,5.60
2016,04,02,05,02,5.60
2016,04,02,05,03,5.60
2016,04,02,05,04,5.60
2016,04,02,05,05,5.60
2016,04,02,05,06,5.60
2016,04,02,05,07,5.60
2016,04,02,05,08,5.60
2016,04,02,05,09,5.60
2016,04,02,05,10,5.50
2016,04,02,05,11,5.50
2016,04,02,05,12,5.50
2016,04,02,05,13,5.50
2016,04,02,05,14,5.50
2016,04,02,05,15,5.50
2016,04,02,05,16,5.40
2016,04,02,05,17,5.40
2016,04,02,05,18,5.50
2016,04,02,05,19,5.50
2016,04,02,05,20,5.40
2016,04,02,05,21,5.40
2016,04,02,05,22,5.40
2016,04,02,05,23,5.40
2016,04,02,05,24,5.40
2016,04,02,05,25,5.40
2016,04,02,05,26,5.40
2016,04,02,05,27,5.40
2016,04,02,05,28,5.40
2016,04,02,05,29,5.30
2016,04,02,05,30,5.30
2016,04,02,05,31,5.30
2016,04,02,05,32,5.30
2016,04,02,05,33,5.30
2016,04,02,05,34,5.30
2016,04,02,05,35,5.30
2016,04,02,05,36,5.30
2016,04,02,05,37,5.20
2016,04,02,05,38,5.20
2016,04,02,05,39,5.20
2016,04,02,05,40,5.20
2016,04,02,05,41,5.20
2016,04,02,05,42,5.20
2016,04,02,05,43,5.20
2016,04,02,05,44,5.20
2016,04,02,05,45,5.20
2016,04,02,05,46,5.10
2016,04,02,05,47,5.10
2016,04,02,05,48,5.10
2016,04,02,05,49,5.10
2016,04,02,05,50,5.10
2016,04,02,05,51,5.10
2016,04,02,05,52,5.10
2016,04,02,05,53,5.00
2016,04,02,05,54,5.00
2016,04,02,05,55,5.00
2016,04,02,05,56,5.00
2016,04,02,05,57,4.90
2016,04,02,05,58,5.00
2016,04,02,05,59,4.90
2016,04,02,06,00,4.90
2016,04,02,06,01,4.90
2016,04,02,06,02,4.90
2016,04,02,06,03,4.90
2016,04,02,06,04,4.90
2016,04,02,06,05,4.90
2016,04,02,06,06,4.90
2016,04,02,06,07,4.90
2016,04,02,06,08,4.90
2016,04,02,06,09,4.90
2016,04,02,06,10,4.90
2016,04,02,06,11,4.90
2016,04,02,06,12,4.90
2016,04,02,06,13,4.90
2016,04,02,06,14,4.90
2016,04,02,06,15,4.90
2016,04,02,06,16,4.90
2016,04,02,06,17,4.90
2016,04,02,06,18,4.90
2016,04,02,06,19,4.90
2016,04,02,06,20,4.90
2016,04,02,06,21,4.90
2016,04,02,06,22,4.90
2016,04,02,06,23,4.90
2016,04,02,06,24,4.90
2016,04,02,06,25,4.90
2016,04,02,06,26,4.90
2016,04,02,06,27,4.90
2016,04,02,06,28,4.90
2016,04,02,06,29,4.90
2016,04,02,06,30,4.90
2016,04,02,06,31,4.90
2016,04,02,06,32,4.90
2016,04,02,06,33,4.90
2016,04,02,06,34,4.90
2016,04,02,06,35,4.90
2016,04,02,06,36,4.90
2016,04,02,06,37,4.90
2016,04,02,06,38,4.90
2016,04,02,06,39,4.90
2016,04,02,06,40,4.90
2016,04,02,06,41,4.90
2016,04,02,06,42,4.90
2016,04,02,06,43,4.90
2016,04,02,06,44,4.80
2016,04,02,06,45,4.80
2016,04,02,06,46,4.80
2016,04,02,06,47,4.80
2016,04,02,06,48,4.80
2016,04,02,06,49,4.80
2016,04,02,06,50,4.80
2016,04,02,06,51,4.80
2016,04,02,06,52,4.80
2016,04,02,06,53,4.80
2016,04,02,06,54,4.80
2016,04,02,06,55,4.80
2016,04,02,06,56,4.80
2016,04,02,06,57,4.80
2016,04,02,06,58,4.80
2016,04,02,06,59,4.70
2016,04,02,07,00,4.70
2016,04,02,07,01,4.70
2016,04,02,07,02,4.70
2016,04,02,07,03,4.70
2016,04,02,07,04,4.70
2016,04,02,07,05,4.70
2016,04,02,07,06,4.70
2016,04,02,07,07,4.70
2016,04,02,07,08,4.70
2016,04,02,07,09,4.70
2016,04,02,07,10,4.70
2016,04,02,07,11,4.70
2016,04,02,07,12,4.70
2016,04,02,07,13,4.70
2016,04,02,07,14,4.70
2016,04,02,07,15,4.70
2016,04,02,07,16,4.70
2016,04,02,07,17,4.70
2016,04,02,07,18,4.70
2016,04,02,07,19,4.70
2016,04,02,07,20,4.70
2016,04,02,07,21,4.60
2016,04,02,07,22,4.60
2016,04,02,07,23,4.60
2016,04,02,07,24,4.60
2016,04,02,07,25,4.60
2016,04,02,07,26,4.60
2016,04,02,07,27,4.60
2016,04,02,07,28,4.60
2016,04,02,07,29,4.60
2016,04,02,07,30,4.60
2016,04,02,07,31,4.60
2016,04,02,07,32,4.70
2016,04,02,07,33,4.70
2016,04,02,07,34,4.70
2016,04,02,07,35,4.70
2016,04,02,07,36,4.70
2016,04,02,07,37,4.70
2016,04,02,07,38,4.70
2016,04,02,07,39,4.70
2016,04,02,07,40,4.70
2016,04,02,07,41,4.70
2016,04,02,07,42,4.70
2016,04,02,07,43,4.70
2016,04,02,07,44,4.80
2016,04,02,07,45,4.80
2016,04,02,07,46,4.80
2016,04,02,07,47,4.80
2016,04,02,07,48,4.90
2016,04,02,07,49,4.90
2016,04,02,07,50,4.90
2016,04,02,07,51,5.00
2016,04,02,07,52,5.00
2016,04,02,07,53,5.10
2016,04,02,07,54,5.10
2016,04,02,07,55,5.10
2016,04,02,07,56,5.20
2016,04,02,07,57,5.20
2016,04,02,07,58,5.30
2016,04,02,07,59,5.30
2016,04,02,08,00,5.40
2016,04,02,08,01,5.50
2016,04,02,08,02,5.50
2016,04,02,08,03,5.60
2016,04,02,08,04,5.70
2016,04,02,08,05,5.70
2016,04,02,08,06,5.80
2016,04,02,08,07,5.90
2016,04,02,08,08,5.90
2016,04,02,08,09,6.00
2016,04,02,08,10,6.10
2016,04,02,08,11,6.10
2016,04,02,08,12,6.20
2016,04,02,08,13,6.30
2016,04,02,08,14,6.30
2016,04,02,08,15,6.40
2016,04,02,08,16,6.50
2016,04,02,08,17,6.60
2016,04,02,08,18,6.70
2016,04,02,08,19,6.80
2016,04,02,08,20,6.80
2016,04,02,08,21,6.90
2016,04,02,08,22,6.90
2016,04,02,08,23,7.00
2016,04,02,08,24,7.10
2016,04,02,08,25,7.20
2016,04,02,08,26,7.30
2016,04,02,08,27,7.40
2016,04,02,08,28,7.50
2016,04,02,08,29,7.60
2016,04,02,08,30,7.70
2016,04,02,08,31,7.90
2016,04,02,08,32,8.00
2016,04,02,08,33,8.20
2016,04,02,08,34,8.20
2016,04,02,08,35,8.30
2016,04,02,08,36,8.40
2016,04,02,08,37,8.50
2016,04,02,08,38,8.60
2016,04,02,08,39,8.70
2016,04,02,08,40,8.80
2016,04,02,08,41,8.90
2016,04,02,08,42,9.10
2016,04,02,08,43,9.30
2016,04,02,08,44,9.50
2016,04,02,08,45,9.60
2016,04,02,08,46,9.80
2016,04,02,08,47,9.90
2016,04,02,08,48,10.10
2016,04,02,08,49,10.20
2016,04,02,08,50,10.40
2016,04,02,08,51,10.60
2016,04,02,08,52,10.70
2016,04,02,08,53,10.80
2016,04,02,08,54,10.80
2016,04,02,08,55,11.00
2016,04,02,08,56,11.10
2016,04,02,08,57,11.20
2016,04,02,08,58,11.20
2016,04,02,08,59,11.30
2016,04,02,09,00,11.40
2016,04,02,09,01,11.40
2016,04,02,09,02,11.50
2016,04,02,09,03,11.60
2016,04,02,09,04,11.60
2016,04,02,09,05,11.60
2016,04,02,09,06,11.70
2016,04,02,09,07,11.70
2016,04,02,09,08,11.70
2016,04,02,09,09,11.70
2016,04,02,09,10,11.70
2016,04,02,09,11,11.80
2016,04,02,09,12,11.80
2016,04,02,09,13,11.90
2016,04,02,09,14,12.00
2016,04,02,09,15,12.00
2016,04,02,09,16,12.00
2016,04,02,09,17,11.90
2016,04,02,09,18,11.90
2016,04,02,09,19,11.80
2016,04,02,09,20,11.70
2016,04,02,09,21,11.60
2016,04,02,09,22,11.60
2016,04,02,09,23,11.60
2016,04,02,09,24,11.60
2016,04,02,09,25,11.50
2016,04,02,09,26,11.60
2016,04,02,09,27,11.60
2016,04,02,09,28,11.60
2016,04,02,09,29,11.60
2016,04,02,09,30,11.70
2016,04,02,09,31,11.70
2016,04,02,09,32,11.80
2016,04,02,09,33,11.90
2016,04,02,09,34,12.00
2016,04,02,09,35,12.10
2016,04,02,09,36,12.20
2016,04,02,09,37,12.20
2016,04,02,09,38,12.20
2016,04,02,09,39,12.30
2016,04,02,09,40,12.30
2016,04,02,09,41,12.30
2016,04,02,09,42,12.30
2016,04,02,09,43,12.30
2016,04,02,09,44,12.20
2016,04,02,09,45,12.20
2016,04,02,09,46,12.20
2016,04,02,09,47,12.20
2016,04,02,09,48,12.20
2016,04,02,09,49,12.30
2016,04,02,09,50,12.30
2016,04,02,09,51,12.30
2016,04,02,09,52,12.40
2016,04,02,09,53,12.40
2016,04,02,09,54,12.40
2016,04,02,09,55,12.40
2016,04,02,09,56,12.50
2016,04,02,09,57,12.50
2016,04,02,09,58,12.60
2016,04,02,09,59,12.50
2016,04,02,10,00,12.40
2016,04,02,10,01,12.40
2016,04,02,10,02,12.30
2016,04,02,10,03,12.30
2016,04,02,10,04,12.30
2016,04,02,10,05,12.40
2016,04,02,10,06,12.50
2016,04,02,10,07,12.50
2016,04,02,10,08,12.60
2016,04,02,10,09,12.60
2016,04,02,10,10,12.60
2016,04,02,10,11,12.60
2016,04,02,10,12,12.60
2016,04,02,10,13,12.70
2016,04,02,10,14,12.70
2016,04,02,10,15,12.80
2016,04,02,10,16,12.80
2016,04,02,10,17,13.00
2016,04,02,10,18,13.00
2016,04,02,10,19,13.10
2016,04,02,10,20,13.10
2016,04,02,10,21,13.10
2016,04,02,10,22,13.20
2016,04,02,10,23,13.20
2016,04,02,10,24,13.30
2016,04,02,10,25,13.30
2016,04,02,10,26,13.30
2016,04,02,10,27,13.40
2016,04,02,10,28,13.50
2016,04,02,10,29,13.60
2016,04,02,10,30,13.70
2016,04,02,10,31,13.80
2016,04,02,10,32,13.90
2016,04,02,10,33,14.00
2016,04,02,10,34,14.00
2016,04,02,10,35,14.10
2016,04,02,10,36,14.20
2016,04,02,10,37,14.20
2016,04,02,10,38,14.30
2016,04,02,10,39,14.40
2016,04,02,10,40,14.40
2016,04,02,10,41,14.30
2016,04,02,10,42,14.20
2016,04,02,10,43,14.20
2016,04,02,10,44,14.00
2016,04,02,10,45,13.90
2016,04,02,10,46,13.70
2016,04,02,10,47,13.70
2016,04,02,10,48,13.70
2016,04,02,10,49,13.70
2016,04,02,10,50,13.70
2016,04,02,10,51,13.70
2016,04,02,10,52,13.70
2016,04,02,10,53,13.80
2016,04,02,10,54,13.80
2016,04,02,10,55,14.00
2016,04,02,10,56,14.10
2016,04,02,10,57,14.20
2016,04,02,10,58,14.30
2016,04,02,10,59,14.30
2016,04,02,11,00,14.40
2016,04,02,11,01,14.50
2016,04,02,11,02,14.60
2016,04,02,11,03,14.70
2016,04,02,11,04,14.70
2016,04,02,11,05,14.70
2016,04,02,11,06,14.80
2016,04,02,11,07,14.80
2016,04,02,11,08,14.80
2016,04,02,11,09,14.80
2016,04,02,11,10,14.70
2016,04,02,11,11,14.70
2016,04,02,11,12,14.70
2016,04,02,11,13,14.70
2016,04,02,11,14,14.70
2016,04,02,11,15,14.70
2016,04,02,11,16,14.80
2016,04,02,11,17,14.80
2016,04,02,11,18,14.90
2016,04,02,11,19,14.90
2016,04,02,11,20,14.80
2016,04,02,11,21,14.70
2016,04,02,11,22,14.80
2016,04,02,11,23,14.90
2016,04,02,11,24,15.00
2016,04,02,11,25,15.00
2016,04,02,11,26,15.00
2016,04,02,11,27,15.00
2016,04,02,11,28,15.00
2016,04,02,11,29,15.00
2016,04,02,11,30,15.00
2016,04,02,11,31,15.00
2016,04,02,11,32,15.00
2016,04,02,11,33,15.00
2016,04,02,11,34,15.00
2016,04,02,11,35,14.90
2016,04,02,11,36,14.90
2016,04,02,11,37,14.90
2016,04,02,11,38,14.80
2016,04,02,11,39,14.80
2016,04,02,11,40,14.80
2016,04,02,11,41,14.80
2016,04,02,11,42,14.80
2016,04,02,11,43,14.80
2016,04,02,11,44,14.80
2016,04,02,11,45,14.80
2016,04,02,11,46,14.70
2016,04,02,11,47,14.80
2016,04,02,11,48,14.80
2016,04,02,11,49,14.80
2016,04,02,11,50,14.80
2016,04,02,11,51,14.90
2016,04,02,11,52,15.00
2016,04,02,11,53,15.00
2016,04,02,11,54,15.20
2016,04,02,11,55,15.20
2016,04,02,11,56,15.10
2016,04,02,11,57,15.10
2016,04,02,11,58,15.00
2016,04,02,11,59,15.00
2016,04,02,12,00,14.90
2016,04,02,12,01,14.70
2016,04,02,12,02,14.60
2016,04,02,12,03,14.70
2016,04,02,12,04,14.80
2016,04,02,12,05,14.80
2016,04,02,12,06,14.80
2016,04,02,12,07,14.80
2016,04,02,12,08,14.70
2016,04,02,12,09,14.60
2016,04,02,12,10,14.40
2016,04,02,12,11,14.30
2016,04,02,12,12,14.30
2016,04,02,12,13,14.40
2016,04,02,12,14,14.50
2016,04,02,12,15,14.70
2016,04,02,12,16,14.80
2016,04,02,12,17,14.80
2016,04,02,12,18,14.90
2016,04,02,12,19,15.00
2016,04,02,12,20,15.00
2016,04,02,12,21,15.00
2016,04,02,12,22,15.00
2016,04,02,12,23,15.00
2016,04,02,12,24,15.00
2016,04,02,12,25,14.90
2016,04,02,12,26,14.90
2016,04,02,12,27,15.00
2016,04,02,12,28,15.00
2016,04,02,12,29,15.00
2016,04,02,12,30,15.00
2016,04,02,12,31,15.00
2016,04,02,12,32,15.00
2016,04,02,12,33,14.90
2016,04,02,12,34,14.80
2016,04,02,12,35,14.80
2016,04,02,12,36,14.80
2016,04,02,12,37,14.80
2016,04,02,12,38,14.80
2016,04,02,12,39,14.80
2016,04,02,12,40,14.80
2016,04,02,12,41,14.80
2016,04,02,12,42,14.80
2016,04,02,12,43,14.90
2016,04,02,12,44,14.90
2016,04,02,12,45,14.90
2016,04,02,12,46,15.00
2016,04,02,12,47,15.00
2016,04,02,12,48,15.00
2016,04,02,12,49,15.00
2016,04,02,12,50,15.00
2016,04,02,12,51,15.10
2016,04,02,12,52,15.20
2016,04,02,12,53,15.40
2016,04,02,12,54,15.50
2016,04,02,12,55,15.40
2016,04,02,12,56,15.40
2016,04,02,12,57,15.40
2016,04,02,12,58,15.50
2016,04,02,12,59,15.60
2016,04,02,13,00,15.70
2016,04,02,13,01,15.70
2016,04,02,13,02,15.70
2016,04,02,13,03,15.70
2016,04,02,13,04,15.60
2016,04,02,13,05,15.50
2016,04,02,13,06,15.50
2016,04,02,13,07,15.50
2016,04,02,13,08,15.40
2016,04,02,13,09,15.30
2016,04,02,13,10,15.20
2016,04,02,13,11,15.20
2016,04,02,13,12,15.20
2016,04,02,13,13,15.00
2016,04,02,13,14,15.00
2016,04,02,13,15,15.00
2016,04,02,13,16,15.00
2016,04,02,13,17,15.00
2016,04,02,13,18,15.00
2016,04,02,13,19,14.80
2016,04,02,13,20,14.80
2016,04,02,13,21,14.80
2016,04,02,13,22,14.80
2016,04,02,13,23,14.70
2016,04,02,13,24,14.60
2016,04,02,13,25,14.60
2016,04,02,13,26,14.60
2016,04,02,13,27,14.50
2016,04,02,13,28,14.50
2016,04,02,13,29,14.40
2016,04,02,13,30,14.30
2016,04,02,13,31,14.20
2016,04,02,13,32,14.20
2016,04,02,13,33,14.20
2016,04,02,13,34,14.20
2016,04,02,13,35,14.20
2016,04,02,13,36,14.20
2016,04,02,13,37,14.20
2016,04,02,13,38,14.30
2016,04,02,13,39,14.30
2016,04,02,13,40,14.40
2016,04,02,13,41,14.60
2016,04,02,13,42,14.70
2016,04,02,13,43,14.80
2016,04,02,13,44,14.90
2016,04,02,13,45,15.00
2016,04,02,13,46,15.00
2016,04,02,13,47,15.00
2016,04,02,13,48,15.10
2016,04,02,13,49,15.20
2016,04,02,13,50,15.20
2016,04,02,13,51,15.10
2016,04,02,13,52,15.00
2016,04,02,13,53,15.10
2016,04,02,13,54,15.20
2016,04,02,13,55,15.10
2016,04,02,13,56,15.00
2016,04,02,13,57,15.00
2016,04,02,13,58,15.00
2016,04,02,13,59,15.00
2016,04,02,14,00,15.00
2016,04,02,14,01,15.00
2016,04,02,14,02,15.10
2016,04,02,14,03,15.10
2016,04,02,14,04,15.20
2016,04,02,14,05,15.30
2016,04,02,14,06,15.30
2016,04,02,14,07,15.30
2016,04,02,14,08,15.30
2016,04,02,14,09,15.40
2016,04,02,14,10,15.40
2016,04,02,14,11,15.40
2016,04,02,14,12,15.40
2016,04,02,14,13,15.40
2016,04,02,14,14,15.50
2016,04,02,14,15,15.50
2016,04,02,14,16,15.50
2016,04,02,14,17,15.30
2016,04,02,14,18,15.30
2016,04,02,14,19,15.20
2016,04,02,14,20,15.00
2016,04,02,14,21,15.00
2016,04,02,14,22,15.10
2016,04,02,14,23,15.10
2016,04,02,14,24,15.20
2016,04,02,14,25,15.30
2016,04,02,14,26,15.40
2016,04,02,14,27,15.50
2016,04,02,14,28,15.60
2016,04,02,14,29,15.60
2016,04,02,14,30,15.60
2016,04,02,14,31,15.50
2016,04,02,14,32,15.50
2016,04,02,14,33,15.40
2016,04,02,14,34,15.30
2016,04,02,14,35,15.30
2016,04,02,14,36,15.40
2016,04,02,14,37,15.40
2016,04,02,14,38,15.40
2016,04,02,14,39,15.50
2016,04,02,14,40,15.50
2016,04,02,14,41,15.50
2016,04,02,14,42,15.50
2016,04,02,14,43,15.40
2016,04,02,14,44,15.40
2016,04,02,14,45,15.50
2016,04,02,14,46,15.60
2016,04,02,14,47,15.60
2016,04,02,14,48,15.60
2016,04,02,14,49,15.60
2016,04,02,14,50,15.60
2016,04,02,14,51,15.60
2016,04,02,14,52,15.70
2016,04,02,14,53,15.70
2016,04,02,14,54,15.80
2016,04,02,14,55,15.90
2016,04,02,14,56,15.90
2016,04,02,14,57,16.00
2016,04,02,14,58,16.00
2016,04,02,14,59,15.90
2016,04,02,15,00,15.80
2016,04,02,15,01,15.70
2016,04,02,15,02,15.70
2016,04,02,15,03,15.70
2016,04,02,15,04,15.60
2016,04,02,15,05,15.60
2016,04,02,15,06,15.50
2016,04,02,15,07,15.60
2016,04,02,15,08,15.80
2016,04,02,15,09,15.80
2016,04,02,15,10,15.80
2016,04,02,15,11,15.80
2016,04,02,15,12,15.80
2016,04,02,15,13,15.80
2016,04,02,15,14,15.80
2016,04,02,15,15,15.90
2016,04,02,15,16,15.90
2016,04,02,15,17,15.90
2016,04,02,15,18,15.80
2016,04,02,15,19,15.80
2016,04,02,15,20,15.80
2016,04,02,15,21,15.80
2016,04,02,15,22,15.90
2016,04,02,15,23,15.90
2016,04,02,15,24,15.90
2016,04,02,15,25,15.90
2016,04,02,15,26,15.80
2016,04,02,15,27,15.90
2016,04,02,15,28,15.90
2016,04,02,15,29,15.90
2016,04,02,15,30,16.00
2016,04,02,15,31,16.10
2016,04,02,15,32,16.20
2016,04,02,15,33,16.30
2016,04,02,15,34,16.20
2016,04,02,15,35,16.20
2016,04,02,15,36,16.20
2016,04,02,15,37,16.30
2016,04,02,15,38,16.30
2016,04,02,15,39,16.30
2016,04,02,15,40,16.40
2016,04,02,15,41,16.50
2016,04,02,15,42,16.60
2016,04,02,15,43,16.60
2016,04,02,15,44,16.60
2016,04,02,15,45,16.70
2016,04,02,15,46,16.70
2016,04,02,15,47,16.70
2016,04,02,15,48,16.70
2016,04,02,15,49,16.70
2016,04,02,15,50,16.80
2016,04,02,15,51,16.80
2016,04,02,15,52,16.90
2016,04,02,15,53,16.90
2016,04,02,15,54,16.80
2016,04,02,15,55,16.80
2016,04,02,15,56,16.90
2016,04,02,15,57,16.80
2016,04,02,15,58,16.80
2016,04,02,15,59,16.80
2016,04,02,16,00,16.80
2016,04,02,16,01,16.80
2016,04,02,16,02,16.80
2016,04,02,16,03,16.90
2016,04,02,16,04,16.90
2016,04,02,16,05,16.90
2016,04,02,16,06,17.00
2016,04,02,16,07,16.90
2016,04,02,16,08,16.80
2016,04,02,16,09,16.80
2016,04,02,16,10,16.80
2016,04,02,16,11,16.70
2016,04,02,16,12,16.70
2016,04,02,16,13,16.80
2016,04,02,16,14,16.90
2016,04,02,16,15,16.90
2016,04,02,16,16,16.90
2016,04,02,16,17,16.90
2016,04,02,16,18,16.90
2016,04,02,16,19,16.90
2016,04,02,16,20,16.90
2016,04,02,16,21,16.80
2016,04,02,16,22,16.70
2016,04,02,16,23,16.70
2016,04,02,16,24,16.70
2016,04,02,16,25,16.70
2016,04,02,16,26,16.80
2016,04,02,16,27,16.80
2016,04,02,16,28,16.90
2016,04,02,16,29,16.90
2016,04,02,16,30,16.90
2016,04,02,16,31,17.00
2016,04,02,16,32,17.00
2016,04,02,16,33,16.90
2016,04,02,16,34,16.90
2016,04,02,16,35,16.80
2016,04,02,16,36,16.90
2016,04,02,16,37,16.90
2016,04,02,16,38,16.90
2016,04,02,16,39,16.90
2016,04,02,16,40,16.90
2016,04,02,16,41,16.90
2016,04,02,16,42,16.90
2016,04,02,16,43,16.90
2016,04,02,16,44,16.90
2016,04,02,16,45,17.00
2016,04,02,16,46,17.10
2016,04,02,16,47,17.10
2016,04,02,16,48,17.10
2016,04,02,16,49,17.00
2016,04,02,16,50,17.00
2016,04,02,16,51,17.00
2016,04,02,16,52,17.00
2016,04,02,16,53,17.10
2016,04,02,16,54,17.10
2016,04,02,16,55,17.10
2016,04,02,16,56,17.20
2016,04,02,16,57,17.20
2016,04,02,16,58,17.10
2016,04,02,16,59,17.00
2016,04,02,17,00,16.90
2016,04,02,17,01,16.90
2016,04,02,17,02,16.90
2016,04,02,17,03,17.00
2016,04,02,17,04,17.10
2016,04,02,17,05,17.10
2016,04,02,17,06,17.10
2016,04,02,17,07,17.10
2016,04,02,17,08,17.20
2016,04,02,17,09,17.20
2016,04,02,17,10,17.10
2016,04,02,17,11,17.10
2016,04,02,17,12,17.00
2016,04,02,17,13,17.00
2016,04,02,17,14,17.00
2016,04,02,17,15,17.10
2016,04,02,17,16,17.10
2016,04,02,17,17,17.10
2016,04,02,17,18,17.10
2016,04,02,17,19,17.10
2016,04,02,17,20,17.10
2016,04,02,17,21,17.10
2016,04,02,17,22,17.10
2016,04,02,17,23,17.20
2016,04,02,17,24,17.20
2016,04,02,17,25,17.10
2016,04,02,17,26,17.20
2016,04,02,17,27,17.20
2016,04,02,17,28,17.20
2016,04,02,17,29,17.20
2016,04,02,17,30,17.20
2016,04,02,17,31,17.20
2016,04,02,17,32,17.20
2016,04,02,17,33,17.20
2016,04,02,17,34,17.10
2016,04,02,17,35,17.10
2016,04,02,17,36,17.20
2016,04,02,17,37,17.10
2016,04,02,17,38,17.10
2016,04,02,17,39,17.00
2016,04,02,17,40,17.00
2016,04,02,17,41,17.00
2016,04,02,17,42,17.00